Preview of NWS' New Version of Forecast
This preview is not operational and should not be used for support decisions.
Latest weather observations around

Chino, Chino Airport (KCNO)

Using English Units (Switch to International System of Units)
Date/ Time (PDT) Wind (mph) Vis. (mi) Weather Sky Cond. Temp (°F) Rel. Humidity Wind Chill (°F) Heat Index (°F) Pressure Precip. (in)
Air Dwpt 6 hour Altimeter (inHg) Sea level (inHg) 1 hr 3 hr 6 hr
Max Min
Apr 26 06:53 SW 3 1.25 Fog/Mist OVC004 55 55     100%     30 29.99      
Apr 26 05:53 W 5 4 Fog/Mist OVC004 54 54     100%     29.99 29.98      
Apr 26 05:36 Calm 7 Cloudy OVC004 53 53     100%     29.99        
Apr 26 05:06 W 3 5 Fog/Mist BKN005 52 52     100%     29.99        
Apr 26 04:53 W 3 5 Fog/Mist FEW005 51 51     100%     29.99 29.98      
Apr 26 03:53 Calm 10 Clear CLR 53 53     100%     30 29.98      
Apr 26 02:53 WSW 5 9 Clear CLR 52 52     100%     30 29.98      
Apr 26 01:53 WNW 3 10 Clear CLR 54 53     97%     30 29.98      
Apr 26 00:53 Calm 10 Clear CLR 57 54     89%     30 29.98      
Apr 25 23:53 Calm 10 Clear CLR 57 54     89%     30 29.98      
Apr 25 22:53 W 6 10 Clear CLR 57 54     89%     30 29.98      
Apr 25 21:53 W 7 10 Clear CLR 59 54     83%     30 29.98      
Apr 25 20:53 WNW 7 10 Clear CLR 63 55     75%     29.97 29.96      
Apr 25 19:53 W 10 10 Clear   66 53     63%     29.95 29.94      
Apr 25 18:53 W 13 10 Mostly Clear FEW250 70 51     51%     29.94 29.93      
Apr 25 17:53 SW 11 10 Partly Cloudy SCT250 74 48     40%   73 29.93 29.92      
Apr 25 16:53 W 15 10 Mostly Clear FEW120 FEW250 79 45     30%   78 29.92 29.91      
Apr 25 15:53 W 15 10 Mostly Clear FEW120 FEW250 81 47     30%   80 29.93 29.92      
Apr 25 14:53 W 14 10 Mostly Clear FEW120 83 48     30%   81 29.94 29.93      
Apr 25 13:53 W 11 10 Mostly Clear FEW120 84 47     27%   82 29.95 29.94      
Apr 25 12:53 W 7 10 Mostly Clear FEW120 81 55     41%   81 29.96 29.95      
Apr 25 11:53 WNW 6 10 Clear CLR 79 53     41%   78 29.98 29.96      
Apr 25 10:53 3 10 Clear CLR 74 53     48%   73 29.99 29.98      
Apr 25 09:53 Calm 10 Haze CLR 68 56     65%     30 29.98      
Apr 25 08:53 Calm 4 Haze CLR 61 57     87%     30 29.99      
Apr 25 07:53 WSW 3 5 Fog/Mist FEW015 56 56     100%     30 29.99      
Apr 25 06:53 Calm 7 Mostly Clear FEW015 53 53     100%     30 29.98      
Apr 25 06:23 Calm 4 Fog/Mist CLR 52 52     100%     29.99        
Apr 25 06:06 Calm 2 Fog/Mist FEW007 51 51     100%     29.98        
Apr 25 06:02 Calm 1 Fog/Mist VV008 52 52     100%     29.98        
Apr 25 05:53 Calm 0.5 Fog VV007 52 52     100%     29.98 29.97      
Apr 25 05:49 Calm 1 Fog/Mist VV007 52 52     100%     29.98        
Apr 25 05:42 Calm 2.5 Fog/Mist CLR 52 52     100%     29.98        
Apr 25 05:30 Calm 5 Fog/Mist CLR 52 52     100%     29.98        
Apr 25 05:11 Calm 2 Fog/Mist CLR 53 53     100%     29.97        
Apr 25 04:53 Calm 4 Fog/Mist CLR 53 53     100%     29.97 29.96      
Apr 25 03:53 Calm 8 Clear CLR 54 54     100%     29.97 29.96      
Apr 25 02:53 Calm 10 Clear CLR 56 55     97%     29.97 29.96      
Apr 25 01:53 Calm 10 Clear CLR 55 55     100%     29.98 29.97      
Apr 25 00:53 Calm 10 Clear CLR 57 56     96%     30 29.98      
Apr 24 23:53 SSE 5 10 Clear CLR 57 52     83%     29.99 29.97      
Apr 24 22:53 Calm 10 Clear CLR 61 54     78%     29.99 29.97      
Apr 24 21:53 W 6 10 Clear CLR 60 54     80%     29.98 29.96      
Apr 24 20:53 W 9 10 Clear CLR 64 53     67%     29.97 29.95      
Apr 24 19:53 WNW 9 10 Clear CLR 67 53     61%     29.94 29.93      
Apr 24 18:53 WSW 8 10 Clear CLR 72 51     48%   71 29.93 29.91      
Apr 24 17:53 WSW 11 10 Clear CLR 76 52     43%   75 29.92 29.91      
Apr 24 16:53 WSW 13 10 Mostly Clear FEW200 79 51     38%   78 29.92 29.91      
Apr 24 15:53 W 14 10 Clear CLR 82 49     32%   81 29.92 29.91      
Apr 24 14:53 W 14 10 Mostly Clear FEW200 82 51     34%   81 29.94 29.93      
Apr 24 13:53 W 13 10 Mostly Clear FEW250 82 52     35%   81 29.96 29.95      
Apr 24 12:53 W 8 10 Mostly Clear FEW250 79 50     36%   78 29.99 29.97      
Apr 24 11:53 W 8 10 Mostly Clear FEW250 78 53     42%   78 30.01 29.99      
Apr 24 10:53 5 10 Clear CLR 74 54     50%   73 30.01 30      
Apr 24 09:53 3 10 Clear CLR 69 55     61%     30.02 30.01      
Apr 24 08:53 Calm 10 Clear CLR 64 56     75%     30.02 30.01      
Apr 24 07:53 Calm 10 Clear CLR 59 57     93%     30.02 30.01      
Apr 24 06:53 Calm 10 Clear CLR 53 53     100%     30.01 29.99      
Apr 24 05:53 Calm 9 Clear CLR 52 52     100%     29.99 29.97      
Apr 24 04:53 Calm 10 Clear CLR 53 53     100%     29.98 29.96      
Apr 24 03:53 SSE 3 10 Clear CLR 54 54     100%     29.97 29.96      
Apr 24 02:53 Calm 10 Clear CLR 54 53     97%     29.97 29.95      
Apr 24 01:53 Calm 10 Clear CLR 56 55     97%     29.97 29.96      
Apr 24 00:53 Calm 10 Clear CLR 57 54     89%     29.98 29.96      
Apr 23 23:53 Calm 10 Clear CLR 57 54     89%     29.98 29.96      
Apr 23 22:53 SW 3 10 Clear CLR 60 54     80%     29.98 29.96      
Apr 23 21:53 NNW 3 10 Clear CLR 60 56     86%     29.97 29.96      
Apr 23 20:53 Calm 10 Clear CLR 62 55     78%     29.95 29.94      
Apr 23 19:53 W 9 10 Clear CLR 64 54     70%     29.91 29.9      
Apr 23 18:53 W 14 10 Mostly Clear FEW110 70 55     59%     29.9 29.89      
Apr 23 17:53 W 15 10 Mostly Clear FEW110 74 55     52%   73 29.89 29.88      
Apr 23 16:53 W 16 10 Mostly Clear FEW110 76 54     47%   75 29.89 29.88      
Apr 23 15:53 W 15 10 Clear CLR 80 53     39%   80 29.89 29.88      
Apr 23 14:53 W 13 10 Clear CLR 83 54     37%   82 29.91 29.9      
Apr 23 13:53 SW 16 10 Mostly Clear FEW200 84 52     33%   82 29.91 29.9      
Apr 23 12:53 W 7 10 Mostly Clear FEW200 85 48     28%   83 29.92 29.91      
Apr 23 11:53 6 10 Mostly Clear FEW200 81 49     33%   80 29.95 29.94      
Apr 23 10:53 WSW 6 10 Mostly Clear FEW200 79 48     34%   78 29.97        
Apr 23 09:53 5 10 Mostly Clear FEW200 69 55     61%     29.98 29.97      
Apr 23 08:53 S 3 10 Clear   61 55     81%     29.99 29.98      
Apr 23 07:53 3 10 Mostly Clear FEW100 56 55     97%     29.99 29.98      
Apr 23 06:53 Calm 10 Mostly Clear FEW100 50 50     100%     29.99 29.98      
Apr 23 05:53 Calm 8 Clear CLR 50 50     100%     29.98 29.97      
May 15 04:53 Calm 8 Clear CLR 53 48     83%     30 29.98      
May 12 10:53 SE 3 10 Cloudy BKN025 OVC035 61 51     70%     29.99 29.98     0
May 12 02:53 SW 7 9 Cloudy BKN023 OVC036 59 49     69%     29.89 29.88      
May 12 02:00 SW 5 10 Cloudy SCT025 OVC031 59 49     69%     29.89        
May 11 17:53 W 14 10 Cloudy OVC043 63 51     65%     29.82 29.81      
May 11 12:53 WNW 7 10 Cloudy OVC030 67 52     59%     29.87 29.85      
Jun 10 18:53 W 15 10 Mostly Cloudy FEW050 BKN200 68 53     59%     29.85 29.84      
Jun 09 20:53 WSW 9 10 Mostly Clear FEW018 67 59     76%     29.9 29.89      
Jun 09 19:53 WSW 11 10 Mostly Clear FEW040 70 59     68%     29.89 29.88      
Jun 09 15:53 SW 18 10 Mostly Clear FEW050 82 53     37%   81 29.88 29.87      
Jun 08 07:53 WSW 5 4 Haze OVC014 65 57     76%     30 29.99      
Jun 07 05:53 Calm 4 Haze OVC012 64 58     81%     29.93 29.92      
Jun 06 09:53 3 2.5 Haze OVC013 68 58     70%     29.96 29.94